Regional Weather Roundup
Issued by NWS Charleston, WV

Home | Current Version | Previous Version | Text Only | Print | Product List | Glossary Off
Versions: 1 2 3 4 5 6 7 8 9 10 11 12 13 14 15 16 17 18 19 20 21 22 23 24 25 26 27 28 29 30 31 32 33 34 35 36 37 38 39 40 41 42 43 44 45 46 47 48 49 50

413
ASUS41 KRLX 300410
RWRRLX
West Virginia Regional Weather Roundup
National Weather Service Charleston WV
1200 AM EDT FRI SEP 30 2016

Note: "fair" indicates few or no clouds below 12,000 feet with no
significant weather and/or obstructions to visibility.

WVZ003-300500-
Northern Panhandle of West Virginia

CITY           SKY/WX    TMP DP  RH WIND       PRES   REMARKS
WHEELING       LGT RAIN  61  57  87 E14       30.13R
$$

WVZ009-300500-
Northwest West Virginia

CITY           SKY/WX    TMP DP  RH WIND       PRES   REMARKS
PARKERSBURG    TSTM      60  58  92 CALM      30.09R FOG
$$

WVZ006-300500-
Western West Virginia

CITY           SKY/WX    TMP DP  RH WIND       PRES   REMARKS
HUNTINGTON     CLOUDY    58  56  93 SW3       30.07F
$$

WVZ015-300500-
West Central West Virginia

CITY           SKY/WX    TMP DP  RH WIND       PRES   REMARKS
CHARLESTON     CLOUDY    59  58  96 CALM      30.06F
$$

WVZ022-031-300500-
North Central West Virginia

CITY           SKY/WX    TMP DP  RH WIND       PRES   REMARKS
CLARKSBURG     CLOUDY    62  60  93 E7G18     30.09S
MORGANTOWN     LGT RAIN  63  60  90 N3        30.16R FOG
$$

WVZ025-035-042-045-300500-
Southern West Virginia

CITY           SKY/WX    TMP DP  RH WIND       PRES   REMARKS
BECKLEY        CLOUDY    57  56  96 W5        30.07F FOG
LOGAN          CLOUDY    55  55 100 CALM      30.08S
BLUEFIELD      FOG       55  55 100 W5        30.09S VSB 1/4
LEWISBURG      TSTM      57  56  97 NE3       30.07F
$$

WVZ047-300500-
Northern Mountains of West Virginia

CITY           SKY/WX    TMP DP  RH WIND       PRES   REMARKS
ELKINS         HVY RAIN  59  57  93 N3        30.11S FOG
$$

WVZ052-300500-
Eastern Panhandle of West Virginia

CITY           SKY/WX    TMP DP  RH WIND       PRES   REMARKS
MARTINSBURG    HVY RAIN  60  59  96 NE6       30.19R FOG
PETERSBURG     LGT RAIN  64  62  91 CALM      30.13F
$$




USA.gov is the U.S. government's official web portal to all federal, state and local government web resources and services.